TimeMDT,TemperatureF,Dew PointF,Humidity,Sea Level PressureIn,VisibilityMPH,Wind Direction,Wind SpeedMPH,Gust SpeedMPH,PrecipitationIn,Events,Conditions,WindDirDegrees,DateUTC
12:15 AM,57.2,46.4,67,29.91,10.0,Calm,Calm,-,N/A,,Clear,0,2013-05-05 06:15:00
12:35 AM,55.4,46.4,72,29.91,10.0,Calm,Calm,-,N/A,,Clear,0,2013-05-05 06:35:00
12:55 AM,53.6,44.6,72,29.91,10.0,Calm,Calm,-,N/A,,Clear,0,2013-05-05 06:55:00
1:15 AM,53.6,46.4,77,29.90,10.0,Calm,Calm,-,N/A,,Clear,0,2013-05-05 07:15:00
1:35 AM,51.8,46.4,82,29.90,10.0,SSE,3.5,-,N/A,,Clear,160,2013-05-05 07:35:00
1:55 AM,51.8,46.4,82,29.90,10.0,Calm,Calm,-,N/A,,Clear,0,2013-05-05 07:55:00
2:15 AM,50.0,44.6,82,29.90,10.0,Calm,Calm,-,N/A,,Clear,0,2013-05-05 08:15:00
2:35 AM,51.8,44.6,76,29.89,10.0,Calm,Calm,-,N/A,,Clear,0,2013-05-05 08:35:00
2:55 AM,50.0,44.6,82,29.88,10.0,Calm,Calm,-,N/A,,Clear,0,2013-05-05 08:55:00
3:15 AM,50.0,42.8,76,29.88,10.0,Calm,Calm,-,N/A,,Clear,0,2013-05-05 09:15:00
3:35 AM,48.2,42.8,82,29.87,10.0,Calm,Calm,-,N/A,,Clear,0,2013-05-05 09:35:00
3:55 AM,48.2,42.8,82,29.87,10.0,Calm,Calm,-,N/A,,Clear,0,2013-05-05 09:55:00
4:15 AM,48.2,42.8,82,29.86,10.0,Calm,Calm,-,N/A,,Clear,0,2013-05-05 10:15:00
4:35 AM,48.2,44.6,87,29.86,10.0,South,3.5,-,N/A,,Clear,170,2013-05-05 10:35:00
4:55 AM,48.2,42.8,82,29.86,10.0,Calm,Calm,-,N/A,,Clear,0,2013-05-05 10:55:00
5:15 AM,46.4,41.0,81,29.86,10.0,Calm,Calm,-,N/A,,Clear,0,2013-05-05 11:15:00
5:35 AM,46.4,42.8,87,29.85,10.0,Calm,Calm,-,N/A,,Clear,0,2013-05-05 11:35:00
5:55 AM,46.4,41.0,81,29.85,10.0,Calm,Calm,-,N/A,,Clear,0,2013-05-05 11:55:00
6:15 AM,44.6,41.0,87,29.84,10.0,Calm,Calm,-,N/A,,Clear,0,2013-05-05 12:15:00
6:35 AM,44.6,39.2,81,29.84,10.0,Calm,Calm,-,N/A,,Clear,0,2013-05-05 12:35:00
6:55 AM,44.6,39.2,81,29.84,10.0,Calm,Calm,-,N/A,,Clear,0,2013-05-05 12:55:00
7:15 AM,42.8,39.2,87,29.84,10.0,Calm,Calm,-,N/A,,Clear,0,2013-05-05 13:15:00
7:35 AM,44.6,41.0,87,29.84,10.0,Calm,Calm,-,N/A,,Clear,0,2013-05-05 13:35:00
7:55 AM,44.6,41.0,87,29.84,10.0,Calm,Calm,-,N/A,,Clear,0,2013-05-05 13:55:00
8:15 AM,48.2,44.6,87,29.84,10.0,Calm,Calm,-,N/A,,Clear,0,2013-05-05 14:15:00
8:35 AM,50.0,46.4,87,29.84,10.0,Calm,Calm,-,N/A,,Clear,0,2013-05-05 14:35:00
8:55 AM,55.4,46.4,72,29.84,10.0,Calm,Calm,-,N/A,,Clear,0,2013-05-05 14:55:00
9:15 AM,57.2,50.0,77,29.84,10.0,Calm,Calm,-,N/A,,Clear,0,2013-05-05 15:15:00
9:35 AM,66.2,46.4,49,29.84,10.0,Calm,Calm,-,N/A,,Clear,0,2013-05-05 15:35:00
9:55 AM,71.6,39.2,31,29.84,10.0,NNE,4.6,-,N/A,,Clear,20,2013-05-05 15:55:00
10:15 AM,75.2,33.8,22,29.84,10.0,ENE,17.3,25.3,N/A,,Clear,70,2013-05-05 16:15:00
10:35 AM,77.0,32.0,19,29.83,10.0,ENE,19.6,33.4,N/A,,Clear,70,2013-05-05 16:35:00
10:55 AM,77.0,32.0,19,29.82,10.0,ENE,17.3,26.5,N/A,,Clear,60,2013-05-05 16:55:00
11:15 AM,78.8,32.0,18,29.81,10.0,ENE,5.8,27.6,N/A,,Clear,70,2013-05-05 17:15:00
11:35 AM,78.8,32.0,18,29.81,10.0,East,18.4,33.4,N/A,,Clear,80,2013-05-05 17:35:00
12:15 PM,80.6,32.0,17,29.80,10.0,ENE,5.8,24.2,N/A,,Clear,60,2013-05-05 18:15:00
12:35 PM,80.6,32.0,17,29.80,10.0,East,8.1,21.9,N/A,,Clear,90,2013-05-05 18:35:00
12:55 PM,80.6,33.8,18,29.79,10.0,East,13.8,25.3,N/A,,Clear,80,2013-05-05 18:55:00
1:15 PM,80.6,33.8,18,29.78,10.0,ENE,12.7,26.5,N/A,,Clear,60,2013-05-05 19:15:00
1:35 PM,82.4,33.8,17,29.77,10.0,NE,17.3,28.8,N/A,,Clear,50,2013-05-05 19:35:00
1:55 PM,82.4,32.0,16,29.76,10.0,NE,15.0,27.6,N/A,,Clear,40,2013-05-05 19:55:00
2:15 PM,82.4,30.2,15,29.76,10.0,NE,17.3,24.2,N/A,,Clear,50,2013-05-05 20:15:00
2:35 PM,84.2,33.8,16,29.75,10.0,ENE,13.8,19.6,N/A,,Clear,60,2013-05-05 20:35:00
2:55 PM,84.2,33.8,16,29.75,10.0,NE,18.4,24.2,N/A,,Clear,50,2013-05-05 20:55:00
3:15 PM,84.2,33.8,16,29.74,10.0,NE,19.6,25.3,N/A,,Clear,50,2013-05-05 21:15:00
3:35 PM,84.2,33.8,16,29.74,10.0,NE,16.1,24.2,N/A,,Clear,40,2013-05-05 21:35:00
3:55 PM,84.2,33.8,16,29.73,10.0,NE,16.1,20.7,N/A,,Clear,50,2013-05-05 21:55:00
4:15 PM,84.2,33.8,16,29.73,10.0,NE,16.1,26.5,N/A,,Clear,50,2013-05-05 22:15:00
4:35 PM,86.0,33.8,15,29.72,10.0,NE,16.1,25.3,N/A,,Clear,50,2013-05-05 22:35:00
4:55 PM,86.0,32.0,14,29.72,10.0,NE,15.0,21.9,N/A,,Clear,40,2013-05-05 22:55:00
5:15 PM,86.0,32.0,14,29.71,10.0,ENE,11.5,19.6,N/A,,Clear,70,2013-05-05 23:15:00
5:35 PM,86.0,30.2,13,29.71,10.0,East,17.3,21.9,N/A,,Clear,80,2013-05-05 23:35:00
5:55 PM,86.0,30.2,13,29.71,10.0,East,16.1,20.7,N/A,,Clear,80,2013-05-05 23:55:00
6:15 PM,86.0,30.2,13,29.70,10.0,East,12.7,21.9,N/A,,Clear,80,2013-05-06 00:15:00
6:35 PM,86.0,32.0,14,29.70,10.0,East,12.7,-,N/A,,Clear,80,2013-05-06 00:35:00
6:55 PM,84.2,32.0,15,29.70,10.0,NE,13.8,20.7,N/A,,Clear,40,2013-05-06 00:55:00
7:15 PM,84.2,32.0,15,29.70,10.0,ENE,9.2,17.3,N/A,,Clear,70,2013-05-06 01:15:00
7:35 PM,84.2,30.2,14,29.70,10.0,East,10.4,17.3,N/A,,Clear,80,2013-05-06 01:35:00
7:55 PM,84.2,30.2,14,29.70,10.0,East,8.1,-,N/A,,Clear,80,2013-05-06 01:55:00
8:15 PM,82.4,32.0,16,29.70,10.0,Calm,Calm,-,N/A,,Clear,0,2013-05-06 02:15:00
8:55 PM,80.6,39.2,23,29.71,10.0,Calm,Calm,-,N/A,,Clear,0,2013-05-06 02:55:00
9:15 PM,71.6,48.2,43,29.71,10.0,Calm,Calm,-,N/A,,Clear,0,2013-05-06 03:15:00
9:35 PM,69.8,46.4,43,29.72,10.0,Calm,Calm,-,N/A,,Clear,0,2013-05-06 03:35:00
9:55 PM,66.2,48.2,52,29.74,10.0,Calm,Calm,-,N/A,,Clear,0,2013-05-06 03:55:00
10:15 PM,59.0,46.4,63,29.77,10.0,South,11.5,-,N/A,,Clear,180,2013-05-06 04:15:00
10:35 PM,55.4,46.4,72,29.80,10.0,South,5.8,-,N/A,,Clear,180,2013-05-06 04:35:00
10:55 PM,53.6,48.2,82,29.82,7.0,SSE,5.8,-,N/A,,Clear,150,2013-05-06 04:55:00
11:15 PM,53.6,48.2,82,29.82,7.0,SE,5.8,-,N/A,,Clear,140,2013-05-06 05:15:00
11:35 PM,51.8,48.2,88,29.83,7.0,SSE,5.8,-,N/A,,Clear,150,2013-05-06 05:35:00
11:55 PM,51.8,48.2,88,29.84,7.0,SSE,4.6,-,N/A,,Clear,150,2013-05-06 05:55:00